Location: Recife
(8.0585°S, 34.8848°W)
Time: 10:07:51
(UTC-03:00)

Transit 2A Rocket - Pass Details

Date: 14 April 2026
Orbit: 587 x 895 km, 66.7° (Epoch: 14 May)

Event Time Altitude Azimuth Distance (km) Brightness Sun altitude
Rises 13:27:34 0° 303° (WNW) 2,808 8.5 53.6°
Reaches altitude 10° 13:30:55 10° 274° (W) 1,906 7.8 52.9°
Maximum altitude 13:32:53 13° 247° (WSW) 1,725 7.4 52.5°
Drops below altitude 10° 13:34:53 10° 219° (SW) 1,925 7.3 52.0°
Sets 13:38:19 0° 190° (S) 2,862 7.9 51.3°
